Time,TemperatureF,DewpointF,PressureIn,WindDirection,WindDirectionDegrees,WindSpeedMPH,WindSpeedGustMPH,Humidity,HourlyPrecipIn,Conditions,Clouds,dailyrainin,SolarRadiationWatts/m^2,SoftwareType,DateUTC
2015-03-05 00:02:00,29.5,25.8,30.34,WSW,240,0.0,3.0,86,0.00,,,0.00,0,Wunderground v.1.15,2015-03-05 08:02:00,
2015-03-05 00:32:00,29.3,25.9,30.33,WSW,240,0.0,3.0,87,0.00,,,0.00,0,Wunderground v.1.15,2015-03-05 08:32:00,
2015-03-05 01:02:00,29.1,25.7,30.34,WSW,240,0.0,3.0,87,0.00,,,0.00,0,Wunderground v.1.15,2015-03-05 09:02:00,
2015-03-05 01:32:00,29.3,26.2,30.34,WSW,240,0.0,3.0,88,0.00,,,0.00,0,Wunderground v.1.15,2015-03-05 09:32:00,
2015-03-05 02:02:00,29.4,26.3,30.34,WSW,240,0.0,3.0,88,0.00,,,0.00,0,Wunderground v.1.15,2015-03-05 10:02:00,
2015-03-05 02:32:00,29.7,26.6,30.33,WSW,240,0.0,3.0,88,0.00,,,0.00,0,Wunderground v.1.15,2015-03-05 10:32:00,
2015-03-05 03:02:00,29.8,26.7,30.33,WSW,240,0.0,3.0,88,0.00,,,0.00,0,Wunderground v.1.15,2015-03-05 11:02:00,
2015-03-05 03:32:00,29.7,26.6,30.33,WSW,240,0.0,3.0,88,0.00,,,0.00,0,Wunderground v.1.15,2015-03-05 11:32:00,
2015-03-05 04:02:00,29.5,26.4,30.32,WSW,240,0.0,3.0,88,0.00,,,0.00,0,Wunderground v.1.15,2015-03-05 12:02:00,
2015-03-05 04:32:00,29.5,26.4,30.33,WSW,240,0.0,3.0,88,0.00,,,0.00,0,Wunderground v.1.15,2015-03-05 12:32:00,
2015-03-05 05:02:00,29.5,26.4,30.33,WSW,240,0.0,3.0,88,0.00,,,0.00,0,Wunderground v.1.15,2015-03-05 13:02:00,
2015-03-05 05:32:00,29.4,26.6,30.33,WSW,240,0.0,3.0,89,0.00,,,0.00,0,Wunderground v.1.15,2015-03-05 13:32:00,
2015-03-05 06:02:00,29.3,26.5,30.34,WSW,240,0.0,3.0,89,0.00,,,0.00,0,Wunderground v.1.15,2015-03-05 14:02:00,
2015-03-05 06:32:00,29.1,26.3,30.35,WSW,240,0.0,3.0,89,0.00,,,0.00,0,Wunderground v.1.15,2015-03-05 14:32:00,
2015-03-05 07:02:00,28.8,26.0,30.36,WSW,240,0.0,3.0,89,0.00,,,0.00,14,Wunderground v.1.15,2015-03-05 15:02:00,
2015-03-05 07:32:00,28.8,26.5,30.36,WSW,240,0.0,3.0,91,0.00,,,0.00,37,Wunderground v.1.15,2015-03-05 15:32:00,
2015-03-05 08:02:00,29.7,27.7,30.37,WSW,240,0.0,3.0,92,0.00,,,0.00,70,Wunderground v.1.15,2015-03-05 16:02:00,
2015-03-05 08:32:00,36.3,31.0,30.38,WSW,240,0.0,3.0,81,0.00,,,0.00,153,Wunderground v.1.15,2015-03-05 16:32:00,
2015-03-05 09:02:00,41.3,31.5,30.39,SW,234,0.0,3.0,68,0.00,,,0.00,292,Wunderground v.1.15,2015-03-05 17:02:00,
2015-03-05 09:32:00,44.8,31.3,30.39,SSE,160,2.0,3.0,59,0.00,,,0.00,378,Wunderground v.1.15,2015-03-05 17:32:00,
2015-03-05 10:02:00,47.3,30.5,30.39,SE,145,2.0,3.0,52,0.00,,,0.00,385,Wunderground v.1.15,2015-03-05 18:02:00,
2015-03-05 10:32:00,47.1,31.7,30.39,SE,143,1.0,4.0,55,0.00,,,0.00,441,Wunderground v.1.15,2015-03-05 18:32:00,
2015-03-05 11:02:00,47.6,32.2,30.39,SSE,148,2.0,3.0,55,0.00,,,0.00,373,Wunderground v.1.15,2015-03-05 19:02:00,
2015-03-05 11:32:00,48.2,30.4,30.40,South,177,1.0,3.0,50,0.00,,,0.00,366,Wunderground v.1.15,2015-03-05 19:32:00,
2015-03-05 12:02:00,49.5,30.6,30.40,SSE,150,1.0,1.0,48,0.00,,,0.00,320,Wunderground v.1.15,2015-03-05 20:02:00,
2015-03-05 12:32:00,49.9,29.4,30.40,SW,217,2.0,3.0,45,0.00,,,0.00,269,Wunderground v.1.15,2015-03-05 20:32:00,
2015-03-05 13:02:00,51.4,31.3,30.39,WSW,250,0.0,3.0,46,0.00,,,0.00,371,Wunderground v.1.15,2015-03-05 21:02:00,
2015-03-05 13:32:00,52.5,32.8,30.39,South,175,1.0,1.0,47,0.00,,,0.00,540,Wunderground v.1.15,2015-03-05 21:32:00,
2015-03-05 14:02:00,54.2,31.6,30.39,SE,141,3.0,4.0,42,0.00,,,0.00,533,Wunderground v.1.15,2015-03-05 22:02:00,
2015-03-05 14:32:00,54.5,30.0,30.38,SSE,163,2.0,3.0,39,0.00,,,0.00,469,Wunderground v.1.15,2015-03-05 22:32:00,
2015-03-05 15:02:00,54.8,28.3,30.38,West,281,1.0,3.0,36,0.00,,,0.00,308,Wunderground v.1.15,2015-03-05 23:02:00,
2015-03-05 15:32:00,55.0,29.2,30.38,West,271,1.0,1.0,37,0.00,,,0.00,294,Wunderground v.1.15,2015-03-05 23:32:00,
2015-03-05 16:02:00,54.8,26.9,30.38,WSW,254,1.0,1.0,34,0.00,,,0.00,253,Wunderground v.1.15,2015-03-06 00:02:00,
2015-03-05 16:32:00,55.1,29.3,30.39,West,267,2.0,2.0,37,0.00,,,0.00,292,Wunderground v.1.15,2015-03-06 00:32:00,
2015-03-05 17:02:00,54.1,28.4,30.39,SW,216,0.0,3.0,37,0.00,,,0.00,81,Wunderground v.1.15,2015-03-06 01:02:00,
2015-03-05 17:32:00,52.2,30.4,30.39,SW,232,0.0,3.0,43,0.00,,,0.00,25,Wunderground v.1.15,2015-03-06 01:32:00,
2015-03-05 18:02:00,47.7,31.9,30.39,SW,232,0.0,3.0,54,0.00,,,0.00,0,Wunderground v.1.15,2015-03-06 02:02:00,
2015-03-05 18:32:00,45.1,32.4,30.40,SW,232,0.0,3.0,61,0.00,,,0.00,0,Wunderground v.1.15,2015-03-06 02:32:00,
2015-03-05 19:02:00,44.9,33.5,30.41,SW,231,0.0,3.0,64,0.00,,,0.00,0,Wunderground v.1.15,2015-03-06 03:02:00,
2015-03-05 19:32:00,45.1,34.0,30.40,SW,231,0.0,3.0,65,0.00,,,0.00,0,Wunderground v.1.15,2015-03-06 03:32:00,
2015-03-05 20:02:00,43.9,34.7,30.40,SW,231,0.0,3.0,70,0.00,,,0.00,0,Wunderground v.1.15,2015-03-06 04:02:00,
2015-03-05 20:32:00,42.6,34.2,30.40,SW,231,0.0,3.0,72,0.00,,,0.00,0,Wunderground v.1.15,2015-03-06 04:32:00,
2015-03-05 21:02:00,41.2,34.5,30.41,SW,231,0.0,3.0,77,0.00,,,0.00,0,Wunderground v.1.15,2015-03-06 05:02:00,
2015-03-05 21:32:00,41.3,34.6,30.42,SW,231,0.0,3.0,77,0.00,,,0.00,0,Wunderground v.1.15,2015-03-06 05:32:00,
2015-03-05 22:02:00,41.5,34.8,30.42,SW,231,0.0,3.0,77,0.00,,,0.00,0,Wunderground v.1.15,2015-03-06 06:02:00,